DW8722 Weather Reports


Display with metric or nautical units.
time (UTC)temp
F
wind
direction
speed
MPH
gust
MPH
rain 1hr
in
rain 24hr
in
rain mn
in
humidity
%
barometer
mb
20260506033323 60 325 9.0 17.0 0.00 0.00 0.00 82 1008.3
20260506032329 61 348 7.0 17.0 0.00 0.00 0.00 82 1008.2
20260506031304 62 340 6.0 14.0 0.00 0.00 0.00 81 1008.0
20260506030249 63 329 8.0 15.0 0.00 0.00 0.00 80 1007.7
20260506025312 64 339 6.0 15.0 0.00 0.00 0.00 80 1007.4
20260506021941 67 0 7.0 14.0 0.00 0.00 0.00 80 1006.4
20260506014709 69 333 4.0 14.0 0.00 0.00 0.00 78 1005.8
20260506013651 69 344 6.0 14.0 0.00 0.00 0.00 78 1005.9
20260506012645 70 324 6.0 13.0 0.00 0.00 0.00 78 1005.8
20260506011621 70 5 5.0 11.0 0.00 0.00 0.00 78 1005.4
20260506010610 71 348 5.0 14.0 0.00 0.00 0.00 77 1005.2
20260506005627 72 11 7.0 14.0 0.00 0.00 0.00 75 1004.7
20260506004610 73 355 3.0 11.0 0.00 0.00 0.00 75 1005.0
20260506003602 74 340 3.0 11.0 0.00 0.00 0.00 74 1005.0
20260506002608 75 313 3.0 13.0 0.00 0.00 0.00 73 1005.0
20260506001558 75 302 6.0 14.0 0.00 0.00 0.00 72 1004.7
20260506000543 76 313 5.0 16.0 0.00 0.00 0.00 70 1004.3
20260505235542 77 318 7.0 16.0 0.00 0.00 0.00 69 1004.2
20260505234513 78 311 8.0 15.0 0.00 0.00 0.00 66 1004.0
20260505231244 82 309 2.0 8.0 0.00 0.00 0.00 61 1003.6
20260505230221 83 271 3.0 9.0 0.00 0.00 0.00 59 1003.3
20260505225242 86 245 3.0 10.0 0.00 0.00 0.00 65 1003.3
20260505224250 86 204 4.0 10.0 0.00 0.00 0.00 63 1003.0
20260505223231 87 196 4.0 10.0 0.00 0.00 0.00 63 1002.7
20260505222224 87 174 3.0 8.0 0.00 0.00 0.00 64 1002.6
20260505221221 87 210 3.0 8.0 0.00 0.00 0.00 62 1002.6
20260505220209 87 223 5.0 9.0 0.00 0.00 0.00 63 1002.9
20260505215231 88 186 5.0 10.0 0.00 0.00 0.00 63 1002.9
20260505214220 88 204 5.0 14.0 0.00 0.00 0.00 62 1002.9
20260505213227 88 196 6.0 15.0 0.00 0.00 0.00 62 1003.0
20260505212251 87 196 7.0 15.0 0.00 0.00 0.00 64 1003.0
20260505211303 87 217 8.0 15.0 0.00 0.00 0.00 66 1003.2
20260505210310 86 193 8.0 15.0 0.00 0.00 0.00 66 1003.2
20260505205305 85 209 7.0 14.0 0.00 0.00 0.00 68 1003.3
20260505204243 84 180 9.0 14.0 0.00 0.00 0.00 70 1003.3
20260505203252 84 171 7.0 14.0 0.00 0.00 0.00 69 1003.6
20260505202243 84 183 8.0 16.0 0.00 0.00 0.00 70 1003.7
20260505201235 84 187 8.0 18.0 0.00 0.00 0.00 69 1003.6
20260505195103 85 202 10.0 18.0 0.00 0.00 0.00 68 1003.8
20260505194042 84 194 11.0 18.0 0.00 0.00 0.00 70 1003.7
20260505193027 83 180 10.0 19.0 0.00 0.00 0.00 71 1003.8
20260505192026 82 196 12.0 19.0 0.00 0.00 0.00 70 1003.6
20260505190954 83 146 9.0 20.0 0.00 0.00 0.00 70 1003.8
20260505190014 82 207 9.0 20.0 0.00 0.00 0.00 72 1003.8
20260505185034 81 196 10.0 19.0 0.00 0.00 0.00 72 1003.8
20260505182854 81 201 10.0 20.0 0.00 0.00 0.00 71 1004.0
20260505181831 81 207 11.0 22.0 0.00 0.00 0.00 72 1004.1
20260505175700 81 202 13.0 26.0 0.00 0.00 0.00 73 1003.9
20260505174647 81 176 11.0 24.0 0.00 0.00 0.00 75 1003.8
20260505173648 79 179 10.0 19.0 0.00 0.00 0.00 76 1003.9
20260505172633 78 181 10.0 25.0 0.00 0.00 0.00 77 1004.1
20260505171648 78 199 12.0 25.0 0.00 0.00 0.00 78 1004.2
20260505164359 76 159 10.0 20.0 0.00 0.00 0.00 80 1003.7
20260505162240 77 221 13.0 29.0 0.00 0.00 0.00 78 1003.9
20260505161215 77 205 12.0 29.0 0.00 0.00 0.00 78 1003.9
20260505160226 77 195 11.0 22.0 0.00 0.00 0.00 79 1004.0
20260505153313 75 180 13.0 24.0 0.00 0.00 0.00 81 1003.7
20260505152243 75 203 14.0 24.0 0.00 0.00 0.00 82 1003.9
20260505151252 74 221 13.0 23.0 0.00 0.00 0.00 82 1004.0
20260505150231 74 200 14.0 28.0 0.00 0.00 0.00 82 1004.0
20260505140118 72 206 14.0 25.0 0.00 0.00 0.00 85 1003.6
20260505130120 71 205 11.0 19.0 0.00 0.00 0.00 86 1003.9
20260505123013 70 169 11.0 22.0 0.00 0.00 0.00 87 1003.6
20260505121947 70 0 9.0 18.0 0.00 0.00 0.00 87 1003.6
20260505120919 70 213 10.0 17.0 0.00 0.00 0.00 86 1003.5
20260505115859 70 187 10.0 23.0 0.00 0.00 0.00 86 1003.3
20260505114857 70 186 10.0 23.0 0.00 0.00 0.00 86 1003.2
20260505113844 70 173 10.0 21.0 0.00 0.00 0.00 86 1003.3
20260505112843 70 188 11.0 18.0 0.00 0.00 0.00 86 1003.3
20260505110656 70 201 11.0 19.0 0.00 0.00 0.00 86 1003.0
20260505101445 70 186 12.0 21.0 0.00 0.00 0.00 86 1003.2
20260505100439 70 194 11.0 25.0 0.00 0.00 0.00 86 1003.2
20260505095423 70 217 12.0 25.0 0.00 0.00 0.00 86 1003.4
20260505094422 70 166 10.0 21.0 0.00 0.00 0.00 86 1003.4
20260505093440 70 181 10.0 20.0 0.00 0.00 0.00 86 1003.6
20260505092436 70 207 12.0 21.0 0.00 0.00 0.00 86 1003.6
20260505091448 70 199 13.0 25.0 0.00 0.00 0.00 86 1003.7
20260505084211 70 203 11.0 22.0 0.00 0.00 0.00 86 1003.6
20260505083222 70 196 12.0 22.0 0.00 0.00 0.00 85 1003.6
20260505082237 70 196 12.0 20.0 0.00 0.00 0.00 85 1003.7
20260505081226 70 192 11.0 18.0 0.00 0.00 0.00 85 1003.8
20260505080244 70 185 12.0 27.0 0.00 0.00 0.00 85 1003.8
20260505075250 71 187 13.0 27.0 0.00 0.00 0.00 84 1003.9
20260505074232 71 180 14.0 26.0 0.00 0.00 0.00 84 1004.0
20260505073212 71 187 13.0 29.0 0.00 0.00 0.00 83 1004.2
20260505072231 71 221 15.0 29.0 0.00 0.00 0.00 83 1004.3
20260505071228 71 192 13.0 25.0 0.00 0.00 0.00 82 1004.3
20260505063943 71 188 11.0 24.0 0.00 0.00 0.00 81 1004.7
20260505062936 71 196 12.0 23.0 0.00 0.00 0.00 81 1004.8
20260505060828 71 194 10.0 20.0 0.00 0.00 0.00 80 1004.8
20260505055758 71 206 11.0 23.0 0.00 0.00 0.00 79 1004.9
20260505054818 71 219 11.0 23.0 0.00 0.00 0.00 79 1005.1
20260505053813 71 184 10.0 19.0 0.00 0.00 0.00 79 1005.1
20260505052811 71 192 11.0 21.0 0.00 0.00 0.00 78 1005.2
20260505051830 72 202 11.0 24.0 0.00 0.00 0.00 78 1005.3
20260505050854 72 171 13.0 24.0 0.00 0.00 0.00 78 1005.3
20260505041644 72 177 8.0 20.0 0.00 0.00 0.00 76 1005.6
20260505040615 72 184 9.0 20.0 0.00 0.00 0.00 76 1005.7
20260505034458 72 155 7.0 15.0 0.00 0.00 0.00 75 1005.7
20260505033507 72 183 8.0 16.0 0.00 0.00 0.00 75 1005.9